TimeCST,TemperatureF,Dew PointF,Humidity,Sea Level PressureIn,VisibilityMPH,Wind Direction,Wind SpeedMPH,Gust SpeedMPH,PrecipitationIn,Events,Conditions,WindDirDegrees,DateUTC
12:53 AM,59.0,27.0,29,30.28,10.0,WSW,3.5,-,N/A,,Clear,250,2013-03-02 06:53:00
1:53 AM,53.1,28.9,40,30.27,10.0,Calm,Calm,-,N/A,,Clear,0,2013-03-02 07:53:00
2:53 AM,51.1,32.0,48,30.27,10.0,West,3.5,-,N/A,,Clear,270,2013-03-02 08:53:00
3:53 AM,48.0,30.0,50,30.27,10.0,West,3.5,-,N/A,,Clear,270,2013-03-02 09:53:00
4:53 AM,48.0,28.9,48,30.29,10.0,WNW,4.6,-,N/A,,Clear,290,2013-03-02 10:53:00
5:53 AM,48.9,25.0,39,30.32,10.0,WNW,3.5,-,N/A,,Clear,290,2013-03-02 11:53:00
6:53 AM,48.9,25.0,39,30.35,10.0,NW,8.1,-,N/A,,Clear,320,2013-03-02 12:53:00
7:53 AM,51.1,30.9,46,30.38,10.0,NNW,9.2,-,N/A,,Clear,340,2013-03-02 13:53:00
8:53 AM,55.9,33.1,42,30.42,10.0,North,9.2,-,N/A,,Clear,10,2013-03-02 14:53:00
9:53 AM,62.1,25.0,24,30.43,10.0,North,11.5,20.7,0.00,,Clear,360,2013-03-02 15:53:00
10:53 AM,64.9,21.9,19,30.43,10.0,North,15.0,21.9,N/A,,Clear,10,2013-03-02 16:53:00
11:53 AM,68.0,21.9,17,30.41,10.0,North,10.4,17.3,N/A,,Clear,10,2013-03-02 17:53:00
12:53 PM,69.1,21.0,16,30.38,10.0,Variable,6.9,-,N/A,,Clear,0,2013-03-02 18:53:00
1:53 PM,71.1,21.0,15,30.33,10.0,North,12.7,16.1,N/A,,Clear,350,2013-03-02 19:53:00
2:53 PM,73.9,19.9,13,30.30,10.0,NNW,15.0,23.0,N/A,,Clear,340,2013-03-02 20:53:00
3:53 PM,73.9,19.0,13,30.27,10.0,NW,15.0,23.0,N/A,,Clear,320,2013-03-02 21:53:00
4:53 PM,73.9,19.0,13,30.26,10.0,NNW,11.5,-,N/A,,Clear,340,2013-03-02 22:53:00
5:53 PM,73.0,21.0,14,30.26,10.0,North,13.8,-,N/A,,Clear,350,2013-03-02 23:53:00
6:53 PM,68.0,21.2,17,30.27,10.0,NNE,5.8,-,N/A,,Clear,20,2013-03-03 00:53:00
7:53 PM,62.1,33.1,34,30.29,10.0,East,16.1,-,N/A,,Clear,100,2013-03-03 01:53:00
8:53 PM,57.9,36.0,44,30.32,10.0,East,8.1,-,N/A,,Clear,90,2013-03-03 02:53:00
9:53 PM,53.1,35.1,50,30.33,10.0,SE,4.6,-,N/A,,Clear,140,2013-03-03 03:53:00
10:53 PM,52.0,36.0,54,30.33,10.0,SSE,3.5,-,N/A,,Clear,150,2013-03-03 04:53:00
11:53 PM,50.0,36.0,59,30.33,10.0,South,4.6,-,N/A,,Clear,170,2013-03-03 05:53:00